C/1997 K1 ( SOHO )

Japanese version
Home page
Updated on June 8, 1997

---------------------------------------------------------------------

* Profile

Discovery Date May 31, 1997
Magnitude
Discoverer SOHO-LASCO coronagraphs

* Orbital Elements

T 1997 June 1.60392 TT                                  Marsden
q   0.0067303            (2000.0)            P               Q
                   Peri.   80.65989     +0.21239444     -0.97639995
                   Node     3.69109     -0.94634835     -0.21550915
e   1.0            Incl.  142.55913     +0.24354343     +0.01410506
>From 21 observations 1997 May 31-June 1.

---------------------------------------------------------------------

The orbital elements are calculated by Dr. Brian G. Marsden and printed on M.P.E.C. 1997-L02.

---------------------------------------------------------------------

Copyright(C) Seiichi Yoshida (comet@aerith.net). All rights reserved.